JOH635 EETU-EFMA

Flight info

Callsign JOH635
Flight time 1h 7m
Altitude 26000
Route OSKAV DCT GONOS DCT ROSAX DCT PISOX DCT SOTUP
Aircraft SF50/L-SDGRWY/L

Departure

Time 2026-05-06 19:17
Airport Tartu Airport (EETU)

Arrival

Time 2026-05-06 20:24
Airport Mariehamn Airport (EFMA)
Time Latitude Longitude Altitude Speed Heading
2026-05-06 19:06 58.30987 26.69107 216 ft 0 kts 268°
2026-05-06 19:13 58.30987 26.69089 216 ft 3 kts 263°
2026-05-06 19:13 58.30953 26.69074 217 ft 7 kts 177°
2026-05-06 19:13 58.30886 26.69106 218 ft 12 kts 176°
2026-05-06 19:13 58.30790 26.69111 219 ft 15 kts 182°
2026-05-06 19:14 58.30746 26.68928 221 ft 19 kts 271°
2026-05-06 19:14 58.30742 26.68627 221 ft 25 kts 267°
2026-05-06 19:14 58.30736 26.68252 219 ft 31 kts 269°
2026-05-06 19:14 58.30733 26.67830 218 ft 30 kts 271°
2026-05-06 19:15 58.30722 26.67479 224 ft 23 kts 266°
2026-05-06 19:15 58.30706 26.67240 230 ft 13 kts 258°
2026-05-06 19:15 58.30720 26.67233 230 ft 6 kts 88°
2026-05-06 19:15 58.30720 26.67239 230 ft 0 kts 88°
2026-05-06 19:16 58.30728 26.67764 219 ft 77 kts 89°
2026-05-06 19:16 58.30745 26.69171 273 ft 126 kts 87°
2026-05-06 19:16 58.30738 26.70945 586 ft 143 kts 88°
2026-05-06 19:16 58.30654 26.73154 440 ft 192 kts 90°
2026-05-06 19:17 58.30686 26.75594 1243 ft 177 kts 85°
2026-05-06 19:17 58.30764 26.77937 1769 ft 180 kts 84°
2026-05-06 19:17 58.30980 26.80221 2288 ft 178 kts 59°
2026-05-06 19:17 58.31878 26.81727 2815 ft 176 kts 28°
2026-05-06 19:18 58.33012 26.82568 3299 ft 176 kts 11°
2026-05-06 19:18 58.34231 26.82831 3754 ft 177 kts
2026-05-06 19:18 58.35446 26.82863 4197 ft 178 kts 359°
2026-05-06 19:18 58.36688 26.82821 4638 ft 179 kts 358°
2026-05-06 19:19 58.37940 26.82760 5068 ft 180 kts 357°
2026-05-06 19:19 58.39181 26.82693 5482 ft 182 kts 356°
2026-05-06 19:19 58.40441 26.82624 5887 ft 183 kts 356°
2026-05-06 19:19 58.41724 26.82494 6282 ft 183 kts 346°
2026-05-06 19:20 58.42885 26.81459 6683 ft 182 kts 323°
2026-05-06 19:20 58.43832 26.79828 7074 ft 183 kts 314°
2026-05-06 19:20 58.44704 26.78006 7462 ft 184 kts 310°
2026-05-06 19:20 58.45542 26.76157 7835 ft 185 kts 309°
2026-05-06 19:21 58.46379 26.74286 8198 ft 186 kts 309°
2026-05-06 19:21 58.47218 26.72400 8552 ft 187 kts 309°
2026-05-06 19:21 58.48052 26.70521 8893 ft 188 kts 308°
2026-05-06 19:21 58.48903 26.68604 9229 ft 190 kts 308°
2026-05-06 19:22 58.49760 26.66672 9557 ft 191 kts 308°
2026-05-06 19:22 58.50619 26.64732 9875 ft 193 kts 307°
2026-05-06 19:22 58.51492 26.62763 10188 ft 194 kts 307°
2026-05-06 19:22 58.52354 26.60800 10487 ft 195 kts 304°
2026-05-06 19:23 58.53111 26.58600 10790 ft 195 kts 298°
2026-05-06 19:23 58.53806 26.56362 11080 ft 197 kts 297°
2026-05-06 19:23 58.54492 26.54117 11361 ft 198 kts 296°
2026-05-06 19:23 58.55196 26.51807 11641 ft 200 kts 296°
2026-05-06 19:24 58.55898 26.49497 11912 ft 202 kts 296°
2026-05-06 19:24 58.56603 26.47178 12182 ft 203 kts 296°
2026-05-06 19:24 58.57315 26.44831 12464 ft 204 kts 296°
2026-05-06 19:24 58.58025 26.42489 12735 ft 204 kts 296°
2026-05-06 19:25 58.58744 26.40118 13002 ft 205 kts 296°
2026-05-06 19:25 58.59462 26.37744 13262 ft 206 kts 296°
2026-05-06 19:25 58.60179 26.35373 13517 ft 207 kts 296°
2026-05-06 19:25 58.60901 26.32981 13776 ft 207 kts 295°
2026-05-06 19:26 58.61629 26.30571 14023 ft 208 kts 295°
2026-05-06 19:26 58.62357 26.28153 14268 ft 209 kts 295°
2026-05-06 19:26 58.63081 26.25748 14505 ft 209 kts 296°
2026-05-06 19:26 58.63813 26.23316 14739 ft 210 kts 296°
2026-05-06 19:27 58.64539 26.20898 14966 ft 211 kts 296°
2026-05-06 19:27 58.65277 26.18441 15192 ft 211 kts 296°
2026-05-06 19:27 58.66014 26.15981 15412 ft 212 kts 296°
2026-05-06 19:27 58.66749 26.13527 15636 ft 214 kts 296°
2026-05-06 19:28 58.67485 26.11067 15971 ft 214 kts 296°
2026-05-06 19:28 58.68236 26.08555 16275 ft 215 kts 296°
2026-05-06 19:28 58.68980 26.06060 16573 ft 216 kts 296°
2026-05-06 19:28 58.69733 26.03544 16863 ft 217 kts 298°
2026-05-06 19:29 58.70728 26.01319 17148 ft 221 kts 310°
2026-05-06 19:29 58.71830 25.99207 17424 ft 223 kts 311°
2026-05-06 19:29 58.72948 25.97114 17698 ft 224 kts 311°
2026-05-06 19:29 58.74061 25.95054 17962 ft 224 kts 312°
2026-05-06 19:30 58.75195 25.92962 18222 ft 225 kts 312°
2026-05-06 19:30 58.76340 25.90853 18478 ft 226 kts 312°
2026-05-06 19:30 58.77485 25.88746 18728 ft 227 kts 312°
2026-05-06 19:30 58.78636 25.86626 18974 ft 228 kts 312°
2026-05-06 19:31 58.79774 25.84528 19212 ft 228 kts 312°
2026-05-06 19:31 58.80934 25.82390 19447 ft 229 kts 312°
2026-05-06 19:31 58.83266 25.78082 19907 ft 231 kts 313°
2026-05-06 19:32 58.84442 25.75908 20149 ft 232 kts 313°
2026-05-06 19:32 58.85622 25.73721 20412 ft 232 kts 313°
2026-05-06 19:32 58.86803 25.71533 20663 ft 233 kts 313°
2026-05-06 19:32 58.87974 25.69362 20907 ft 233 kts 313°
2026-05-06 19:33 58.89172 25.67137 21149 ft 234 kts 313°
2026-05-06 19:33 58.90367 25.64917 21377 ft 235 kts 313°
2026-05-06 19:33 58.91562 25.62692 21602 ft 236 kts 313°
2026-05-06 19:33 58.92768 25.60446 21822 ft 238 kts 313°
2026-05-06 19:34 58.93925 25.58173 22118 ft 237 kts 305°
2026-05-06 19:34 58.94859 25.55503 22398 ft 237 kts 300°
2026-05-06 19:34 58.95736 25.52767 22674 ft 238 kts 300°
2026-05-06 19:34 58.96592 25.50036 22931 ft 239 kts 299°
2026-05-06 19:35 58.97459 25.47239 23189 ft 240 kts 299°
2026-05-06 19:35 58.98319 25.44451 23442 ft 241 kts 299°
2026-05-06 19:35 58.99192 25.41611 23685 ft 243 kts 299°
2026-05-06 19:35 59.00074 25.38734 23930 ft 244 kts 299°
2026-05-06 19:36 59.00951 25.35871 24169 ft 245 kts 299°
2026-05-06 19:36 59.01825 25.33010 24399 ft 246 kts 298°
2026-05-06 19:36 59.02699 25.30146 24622 ft 247 kts 298°
2026-05-06 19:36 59.03586 25.27239 24845 ft 248 kts 298°
2026-05-06 19:37 59.04477 25.24311 25059 ft 249 kts 298°
2026-05-06 19:37 59.05359 25.21411 25273 ft 250 kts 298°
2026-05-06 19:37 59.06248 25.18485 25485 ft 251 kts 298°
2026-05-06 19:37 59.07132 25.15570 25702 ft 251 kts 298°
2026-05-06 19:38 59.08027 25.12618 25915 ft 251 kts 298°
2026-05-06 19:38 59.08921 25.09662 26012 ft 251 kts 298°
2026-05-06 19:38 59.09819 25.06693 26020 ft 252 kts 298°
2026-05-06 19:38 59.10719 25.03709 26020 ft 253 kts 298°
2026-05-06 19:39 59.11618 25.00726 26005 ft 254 kts 298°
2026-05-06 19:39 59.12528 24.97704 26018 ft 254 kts 297°
2026-05-06 19:39 59.13427 24.94711 26020 ft 254 kts 297°
2026-05-06 19:39 59.14331 24.91701 26019 ft 254 kts 297°
2026-05-06 19:40 59.15218 24.88741 26019 ft 254 kts 297°
2026-05-06 19:40 59.16117 24.85740 26019 ft 254 kts 297°
2026-05-06 19:40 59.17025 24.82706 26019 ft 254 kts 297°
2026-05-06 19:40 59.17915 24.79723 26019 ft 254 kts 297°
2026-05-06 19:41 59.18802 24.76751 26019 ft 254 kts 297°
2026-05-06 19:41 59.19691 24.73767 26019 ft 254 kts 297°
2026-05-06 19:41 59.20587 24.70755 26019 ft 254 kts 297°
2026-05-06 19:41 59.21475 24.67769 26019 ft 254 kts 297°
2026-05-06 19:42 59.22358 24.64791 26019 ft 255 kts 297°
2026-05-06 19:42 59.23243 24.61807 26018 ft 255 kts 297°
2026-05-06 19:42 59.24135 24.58791 26018 ft 255 kts 297°
2026-05-06 19:42 59.25010 24.55830 26018 ft 255 kts 297°
2026-05-06 19:43 59.25895 24.52833 26018 ft 255 kts 297°
2026-05-06 19:43 59.26789 24.49801 26018 ft 255 kts 297°
2026-05-06 19:43 59.27674 24.46798 26018 ft 255 kts 297°
2026-05-06 19:43 59.28551 24.43813 26018 ft 255 kts 297°
2026-05-06 19:44 59.29442 24.40782 26018 ft 255 kts 297°
2026-05-06 19:44 59.30315 24.37803 26018 ft 255 kts 297°
2026-05-06 19:44 59.31200 24.34783 26018 ft 255 kts 297°
2026-05-06 19:44 59.32082 24.31768 26020 ft 255 kts 297°
2026-05-06 19:45 59.32961 24.28758 26021 ft 255 kts 297°
2026-05-06 19:45 59.33852 24.25707 26021 ft 255 kts 297°
2026-05-06 19:45 59.34728 24.22699 26020 ft 255 kts 297°
2026-05-06 19:45 59.35611 24.19664 26020 ft 255 kts 297°
2026-05-06 19:46 59.36490 24.16640 26020 ft 255 kts 297°
2026-05-06 19:46 59.37359 24.13648 26020 ft 255 kts 297°
2026-05-06 19:46 59.38246 24.10587 26020 ft 255 kts 297°
2026-05-06 19:46 59.39124 24.07555 26020 ft 255 kts 297°
2026-05-06 19:47 59.40000 24.04524 26020 ft 255 kts 297°
2026-05-06 19:47 59.40867 24.01521 26020 ft 255 kts 297°
2026-05-06 19:47 59.41753 23.98448 26020 ft 255 kts 297°
2026-05-06 19:47 59.42629 23.95408 26020 ft 255 kts 297°
2026-05-06 19:48 59.43507 23.92354 26020 ft 255 kts 297°
2026-05-06 19:48 59.44375 23.89331 26019 ft 255 kts 297°
2026-05-06 19:48 59.45258 23.86254 26019 ft 255 kts 297°
2026-05-06 19:48 59.46128 23.83217 26019 ft 255 kts 297°
2026-05-06 19:49 59.46995 23.80183 26019 ft 255 kts 297°
2026-05-06 19:49 59.47877 23.77160 26019 ft 255 kts 297°
2026-05-06 19:49 59.48785 23.74117 26019 ft 255 kts 298°
2026-05-06 19:49 59.49687 23.71096 26019 ft 255 kts 298°
2026-05-06 19:50 59.50584 23.68091 26019 ft 255 kts 298°
2026-05-06 19:50 59.51483 23.65080 26019 ft 255 kts 298°
2026-05-06 19:50 59.52392 23.62030 26018 ft 255 kts 298°
2026-05-06 19:50 59.53291 23.59010 26019 ft 255 kts 298°
2026-05-06 19:51 59.54187 23.55996 26018 ft 255 kts 298°
2026-05-06 19:51 59.55087 23.52965 26018 ft 255 kts 298°
2026-05-06 19:51 59.55985 23.49939 26018 ft 255 kts 298°
2026-05-06 19:51 59.56889 23.46884 26018 ft 255 kts 298°
2026-05-06 19:52 59.57782 23.43864 26018 ft 255 kts 298°
2026-05-06 19:52 59.58607 23.40750 26019 ft 254 kts 293°
2026-05-06 19:52 59.59334 23.37575 26018 ft 254 kts 292°
2026-05-06 19:52 59.60046 23.34412 26019 ft 254 kts 291°
2026-05-06 19:53 59.60762 23.31212 26021 ft 254 kts 291°
2026-05-06 19:53 59.61470 23.28043 26021 ft 254 kts 291°
2026-05-06 19:53 59.62186 23.24826 25855 ft 254 kts 291°
2026-05-06 19:53 59.62899 23.21614 25555 ft 255 kts 291°
2026-05-06 19:54 59.63608 23.18419 25258 ft 255 kts 291°
2026-05-06 19:54 59.64321 23.15195 24958 ft 255 kts 291°
2026-05-06 19:54 59.65038 23.11953 24656 ft 255 kts 291°
2026-05-06 19:54 59.65743 23.08759 24358 ft 255 kts 291°
2026-05-06 19:55 59.66454 23.05534 24058 ft 255 kts 291°
2026-05-06 19:55 59.67163 23.02313 23759 ft 256 kts 291°
2026-05-06 19:55 59.67873 22.99080 23458 ft 256 kts 290°
2026-05-06 19:55 59.68574 22.95885 23161 ft 255 kts 290°
2026-05-06 19:56 59.69292 22.92609 22857 ft 255 kts 290°
2026-05-06 19:56 59.69987 22.89428 22561 ft 255 kts 290°
2026-05-06 19:56 59.70693 22.86196 22260 ft 255 kts 290°
2026-05-06 19:56 59.71401 22.82948 21958 ft 255 kts 290°
2026-05-06 19:57 59.72107 22.79709 21657 ft 255 kts 290°
2026-05-06 19:57 59.72810 22.76469 21356 ft 255 kts 290°
2026-05-06 19:57 59.73513 22.73231 21055 ft 255 kts 290°
2026-05-06 19:57 59.74220 22.69967 20752 ft 255 kts 290°
2026-05-06 19:58 59.74926 22.66703 20449 ft 255 kts 290°
2026-05-06 19:58 59.75624 22.63472 20149 ft 255 kts 290°
2026-05-06 19:58 59.76327 22.60211 19846 ft 255 kts 290°
2026-05-06 19:58 59.77028 22.56954 19544 ft 255 kts 290°
2026-05-06 19:59 59.77727 22.53704 19242 ft 256 kts 290°
2026-05-06 19:59 59.78418 22.50485 18944 ft 256 kts 290°
2026-05-06 19:59 59.79113 22.47240 18643 ft 256 kts 290°
2026-05-06 19:59 59.79813 22.43970 18340 ft 256 kts 290°
2026-05-06 20:00 59.80508 22.40720 18053 ft 255 kts 290°
2026-05-06 20:00 59.81199 22.37477 17776 ft 254 kts 290°
2026-05-06 20:00 59.81887 22.34246 17501 ft 254 kts 289°
2026-05-06 20:00 59.82573 22.31024 17241 ft 253 kts 289°
2026-05-06 20:01 59.83259 22.27791 16991 ft 252 kts 289°
2026-05-06 20:01 59.83929 22.24629 16746 ft 251 kts 289°
2026-05-06 20:01 59.84610 22.21413 16496 ft 250 kts 289°
2026-05-06 20:01 59.85286 22.18214 16247 ft 249 kts 289°
2026-05-06 20:02 59.85958 22.15030 15999 ft 249 kts 289°
2026-05-06 20:02 59.86626 22.11859 15751 ft 249 kts 289°
2026-05-06 20:02 59.87294 22.08683 15504 ft 249 kts 289°
2026-05-06 20:02 59.87962 22.05501 15255 ft 248 kts 289°
2026-05-06 20:03 59.88619 22.02368 15010 ft 248 kts 289°
2026-05-06 20:03 59.89288 21.99175 14753 ft 248 kts 289°
2026-05-06 20:03 59.89945 21.96031 14456 ft 248 kts 289°
2026-05-06 20:03 59.90605 21.92869 14158 ft 247 kts 289°
2026-05-06 20:04 59.91263 21.89711 13859 ft 246 kts 289°
2026-05-06 20:04 59.91911 21.86594 13563 ft 246 kts 289°
2026-05-06 20:04 59.92562 21.83464 13265 ft 245 kts 289°
2026-05-06 20:04 59.93218 21.80301 12965 ft 245 kts 289°
2026-05-06 20:05 59.93868 21.77161 12666 ft 245 kts 289°
2026-05-06 20:05 59.94510 21.74056 12370 ft 245 kts 289°
2026-05-06 20:05 59.95163 21.70893 12069 ft 245 kts 289°
2026-05-06 20:05 59.95803 21.67789 11774 ft 244 kts 289°
2026-05-06 20:06 59.96451 21.64639 11473 ft 244 kts 289°
2026-05-06 20:06 59.97095 21.61508 11174 ft 244 kts 290°
2026-05-06 20:06 59.97728 21.58420 10878 ft 243 kts 290°
2026-05-06 20:06 59.98371 21.55284 10581 ft 242 kts 290°
2026-05-06 20:07 59.99003 21.52192 10332 ft 241 kts 290°
2026-05-06 20:07 59.99630 21.49125 10090 ft 239 kts 290°
2026-05-06 20:07 60.00252 21.46081 10023 ft 232 kts 290°
2026-05-06 20:07 60.00850 21.43146 10018 ft 226 kts 290°
2026-05-06 20:08 60.01443 21.40229 10020 ft 228 kts 290°
2026-05-06 20:08 60.02040 21.37286 10020 ft 229 kts 290°
2026-05-06 20:08 60.02641 21.34323 10020 ft 230 kts 289°
2026-05-06 20:08 60.03246 21.31335 10021 ft 231 kts 289°
2026-05-06 20:09 60.03849 21.28355 10021 ft 232 kts 289°
2026-05-06 20:09 60.04448 21.25387 10021 ft 232 kts 289°
2026-05-06 20:09 60.05056 21.22372 10021 ft 233 kts 289°
2026-05-06 20:09 60.05658 21.19379 10021 ft 234 kts 289°
2026-05-06 20:10 60.06271 21.16333 10021 ft 234 kts 289°
2026-05-06 20:10 60.06875 21.13322 10021 ft 234 kts 289°
2026-05-06 20:10 60.07485 21.10276 10021 ft 235 kts 289°
2026-05-06 20:10 60.08092 21.07241 10021 ft 235 kts 289°
2026-05-06 20:11 60.08696 21.04223 10021 ft 235 kts 288°
2026-05-06 20:11 60.09301 21.01189 10021 ft 235 kts 288°
2026-05-06 20:11 60.09913 20.98121 10021 ft 235 kts 288°
2026-05-06 20:11 60.10518 20.95079 10019 ft 236 kts 288°
2026-05-06 20:12 60.11127 20.92008 10018 ft 233 kts 288°
2026-05-06 20:12 60.11724 20.89002 10017 ft 228 kts 287°
2026-05-06 20:12 60.12301 20.86093 10017 ft 225 kts 287°
2026-05-06 20:12 60.12878 20.83175 10017 ft 223 kts 287°
2026-05-06 20:13 60.13453 20.80265 10018 ft 221 kts 287°
2026-05-06 20:13 60.14020 20.77387 10018 ft 222 kts 287°
2026-05-06 20:13 60.14585 20.74516 10018 ft 223 kts 287°
2026-05-06 20:13 60.15158 20.71599 10018 ft 224 kts 287°
2026-05-06 20:14 60.15733 20.68672 10018 ft 224 kts 287°
2026-05-06 20:14 60.16304 20.65756 10018 ft 224 kts 287°
2026-05-06 20:14 60.16874 20.62848 10018 ft 224 kts 287°
2026-05-06 20:14 60.17446 20.59914 10018 ft 224 kts 287°
2026-05-06 20:15 60.18020 20.56976 10018 ft 225 kts 287°
2026-05-06 20:15 60.18592 20.54037 9952 ft 227 kts 287°
2026-05-06 20:15 60.19162 20.51105 9441 ft 229 kts 288°
2026-05-06 20:15 60.19746 20.48105 8982 ft 227 kts 288°
2026-05-06 20:16 60.20312 20.45182 8557 ft 225 kts 288°
2026-05-06 20:16 60.20875 20.42280 8154 ft 223 kts 288°
2026-05-06 20:16 60.21433 20.39398 7839 ft 218 kts 288°
2026-05-06 20:16 60.21978 20.36573 7533 ft 214 kts 288°
2026-05-06 20:17 60.22510 20.33812 7229 ft 211 kts 287°
2026-05-06 20:17 60.23042 20.31047 6893 ft 211 kts 287°
2026-05-06 20:17 60.23582 20.28233 6452 ft 215 kts 287°
2026-05-06 20:17 60.24132 20.25366 5918 ft 222 kts 288°
2026-05-06 20:18 60.24693 20.22437 5367 ft 227 kts 288°
2026-05-06 20:18 60.25259 20.19472 4818 ft 230 kts 288°
2026-05-06 20:18 60.25840 20.16431 4261 ft 232 kts 289°
2026-05-06 20:18 60.26423 20.13382 3696 ft 231 kts 289°
2026-05-06 20:19 60.26988 20.10418 3118 ft 227 kts 289°
2026-05-06 20:19 60.27400 20.07389 2502 ft 223 kts 267°
2026-05-06 20:19 60.26820 20.04657 2070 ft 209 kts 222°
2026-05-06 20:19 60.25667 20.03227 2021 ft 189 kts 212°
2026-05-06 20:20 60.24643 20.01681 2017 ft 179 kts 219°
2026-05-06 20:20 60.23686 20.00127 2018 ft 174 kts 213°
2026-05-06 20:20 60.22654 19.98947 2019 ft 171 kts 206°
2026-05-06 20:20 60.21579 19.97957 2019 ft 170 kts 203°
2026-05-06 20:21 60.20493 19.97006 1916 ft 170 kts 203°
2026-05-06 20:21 60.19481 19.96125 1687 ft 150 kts 203°
2026-05-06 20:21 60.18594 19.95351 1523 ft 118 kts 203°
2026-05-06 20:21 60.17898 19.94745 1306 ft 105 kts 203°
2026-05-06 20:22 60.17230 19.94165 1131 ft 105 kts 203°
2026-05-06 20:22 60.16559 19.93581 962 ft 105 kts 203°
2026-05-06 20:22 60.15877 19.92989 793 ft 108 kts 203°
2026-05-06 20:22 60.15187 19.92390 622 ft 109 kts 203°
2026-05-06 20:23 60.14499 19.91793 452 ft 107 kts 203°
2026-05-06 20:23 60.13839 19.91219 288 ft 99 kts 203°
2026-05-06 20:23 60.13232 19.90684 141 ft 94 kts 203°
2026-05-06 20:23 60.12707 19.90227 31 ft 67 kts 199°
2026-05-06 20:24 60.12445 19.90023 21 ft 16 kts 192°
2026-05-06 20:24 60.12479 19.90015 21 ft 11 kts 25°
2026-05-06 20:24 60.12558 19.90130 22 ft 11 kts 70°
2026-05-06 20:24 60.12530 19.90325 21 ft 18 kts 114°
2026-05-06 20:25 60.12483 19.90513 24 ft 12 kts 148°
2026-05-06 20:25 60.12429 19.90621 24 ft 5 kts 115°
2026-05-06 20:25 60.12428 19.90628 24 ft 0 kts 115°